Погода в Даниловке

Погода в Даниловке : погода сейчас, прогноз погоды и архив. Всё, что Вы хотите узнать о погоде в Даниловке!

Хотите узнать прогноз погоды в Даниловке? Тогда Вам сюда: Погода в Даниловке

Поиск расширенной информации на нашем сайте:

Другие новости

Новости СМИ2

Главная страница сайта

Новости сайта

03.07.2017

Напоминаем, что на нашем специализированном сайте Метеоцентр.Азия вы можете получить высокодетализированные автоматические прогнозы погоды по пунктам России, СНГ и мира в авиационном формате (включающие направление и скорость ветра, видимость, явления погоды, количество и форму облачности, нижнюю и верхнюю границу облачности).


Погода в Даниловке - сегодня

Время (UTC), дата Ветер
(°,м/с) 
Видим.   Явления Облачность Т
(°С)
Тd
(°С)
f(%) Тe
(°С)
Pmin
(гПа)
dP
(гПа)
Po
(мм)
O2
(г/м3)
Тmin Tmax R s Состояние
почвы
12 17.06.18 060 (СВ) 2{10}  20000 м    ясно 
+26.5 +0.7 19 +27  1014.9  -1.5  752  276           
15 17.06.18 360 (С) 20000 м    ясно 
+25.8 -1 17 +26  1014.1  -0.9  752  277    +26.9       
18 17.06.18 350 (С) 20000 м    ясно 
+16.5 +1.9 37 +18  1015.1  0.6  752  286           
21 17.06.18 030 (СВ) 20000 м    4/0 средняя 
[Ac trans]
+10.1 +3.9 65 +11  1015.3  752  292           
00 18.06.18 010 (С) 20000 м    ясно 
+9.2 +2.3 62 +10  1015.3  752  293           
06 18.06.18 060 (СВ) 20000 м    ясно 
+25.2 +4.1 26 +25  1014  -0.7  752  277           
09 18.06.18 030 (СВ) 20000 м    1/1 600 м 
[Cu hum]
+27.7 +3.7 21 +28  1012.8  -1.1  751  274           
12 18.06.18 360 (С) 20000 м    1/1 600 м 
[Cu hum]
+29.4 -2.1 13 +29  1011.8  -0.9  750  273           
18 18.06.18 340 (С) 20000 м    ясно 
+19.3 +5.4 40 +21  1012.6  0.7  750  282           
21 18.06.18 тихо ()   20000 м    ясно 
+12.4 +5.8 64 +12  1013.3  0.4  751  288           
00 19.06.18 тихо ()   20000 м    ясно 
+10.2 +5.6 73 +10  1013.7  0.3  751  291           
06 19.06.18 260 (З) 20000 м    ясно 
+27.6 +5.1 24 +28  1013.7  0.1  752  274           
09 19.06.18 060 (СВ) 20000 м    4/4 600 м 
[Cu hum]
+29.8 +4.8 20 +30  1012.8  -0.8  751  272           
12 19.06.18 300 (СЗ) 20000 м    5/5 600 м 
[Cu hum]
+32 +2.7 16 +32  1011.7  -1  750  270           
21 19.06.18 250 (З) 20000 м  {ливн. осадки}  8/8 600 м кучево-дожд. 
[Cb calv]
+18.9 +13.7 72 +26  1012.8  -0.1  751  280           
00 20.06.18 тихо ()   20000 м  {ливн. осадки}  ясно 
+14.1 +11.8 86 +18  1012.9  -0.1  751  285           
06 20.06.18 220 (ЮЗ) 20000 м    9/0 верхняя 
[Cs]
+28.2 +11.8 36 +32  1011.9  -0.5  750  272           
18 20.06.18 320 (СЗ) 20000 м    10/0 верхняя 
[Cs]
+23.7 +13.1 51 +29  1009.9  1.1  749  275           
21 20.06.18 310 (СЗ) 20000 м    ясно 
+17.3 +12.5 73 +24  1011.2  749  282           
00 21.06.18 340 (С) 20000 м    10/4 600 м кучево-дожд., верхняя 
[Cb calv|Cs]
+15.8 +11.7 77 +20  1012  0.7  750  283           
06 21.06.18 310 (СЗ) 20000 м    ясно 
+24.7 +6.4 31 +25  1013.4  0.2  751  277           
09 21.06.18 300 (СЗ) 20000 м    ясно 
+26.8 +5.3 25 +27  1012.8  -0.6  751  275           
12 21.06.18 270 (З) 20000 м    ясно 
+28.5 +4.9 22 +29  1011.8  -0.9  750  273           
15 21.06.18 320 (СЗ) 20000 м    ясно 
+27.7 +5.5 24 +28  1011.5  -0.3  750  273    +29       
18 21.06.18 360 (С) 20000 м    ясно 
+20.7 +7.7 43 +21  1013  1.2  751  280           
Время (UTC), дата Ветер
(°,м/с) 
Видим.   Явления Облачность Т
(°С)
Тd
(°С)
f(%) Тe
(°С)
Pmin
(гПа)
dP
(гПа)
Po
(мм)
O2
(г/м3)
Тmin Tmax R s Состояние
почвы

Для получения пояснительной информации подведите курсор к названию столбца.

ПОГОДА в Даниловке - архив

Всё, что Вы хотите узнать о погоде в Даниловке - удобно и подробно!

Выберите нужную дату (начиная с 1 января 2015* года) и нажмите кнопку "Найти".
Будут отображены архивные сводки погоды по пункту Даниловка, начиная с указанной даты.


Отображать данные в формате CSV (для использования в таблицах Excel)


Внимание! Наш архив погоды предназначен исключительно для личного некоммерческого использования в познавательных целях. Если Вам необходимы официальные справки о состоянии погоды (для производственных, юридических, коммерческих и т.п. целей), обращайтесь в органы Росгидромета.

*Примечание: данная дата относится к архиву по метеостанциям СССР (Россия, СНГ, Балтия).
Архив по метеостанциям Зарубежной Европы и Азии (кроме Китая) хранится 10 дней, по другим регионам земного шара (Китай, Африка, Америка, Австралия, Океания) - 1 день.

Даниловка - район местоположения метеостанции


Название, широта, долгота, высота метеостанции:
Даниловка 50.4°ш. 44.1°д. 102 м над ур. моря [Российская Федерация]

Дополнительная информация

В oтличие oт бoльшинства пoгoдных сайтoв мы публикуем пoдрoбную метеoинфoрмацию в детальнoм прoфессиoнальнoм фoрмате.

Характеристики температуры и влажнoсти вoздуха измеряются на высoте 2 м в тени вдали oт зданий и деревьев.
Скoрoсть ветра измеряется на высoте 10 м (на урoвне рoста челoвека скoрoсть ветра ниже в 1.5-2 раза). Если метеoстанция нахoдится в гoрoде или в лесу, тo скoрoсть ветра занижена на 2-4 м/с пo сравнению с oткрытым местoм. Скoрoсть ветра над акватoриями крупных рек и oзёр, а также на вершинах хoлмoв на 2-5 м/с выше, чем в oбычных услoвиях.
Атмoсфернoе давление в разных тoчках местнoсти мoжет значительнo oтличаться oт давления на метеoстанции, в зависимoсти oт услoвий рельефа (при пoдъёме на 10 м давление пoнижается примернo на 1 мм рт.ст.).